KB3YTV Weather Reports


time (UTC)temp
F
wind
direction
speed
knots
gust
knots
rain 1hr
in
rain 24hr
in
rain mn
in
humidity
%
barometer
mb
20260505183034 81 184 4.3 12.2 0.00 0.03 0.03 40 1007.9
20260505181537 81 252 3.5 10.4 0.00 0.03 0.03 42 1008.0
20260505180045 79 263 4.3 13.9 0.00 0.03 0.03 42 1008.4
20260505174534 81 266 3.5 12.2 0.00 0.03 0.03 44 1008.5
20260505173034 81 207 3.5 8.7 0.00 0.03 0.03 45 1008.6
20260505171538 80 238 3.5 10.4 0.00 0.03 0.03 45 1008.7
20260505170033 79 258 2.6 7.0 0.00 0.03 0.03 46 1008.9
20260505164534 78 264 4.3 12.2 0.00 0.03 0.03 46 1009.2
20260505163035 78 290 4.3 10.4 0.00 0.03 0.03 45 1009.3
20260505161532 78 240 3.5 8.7 0.00 0.03 0.03 49 1009.4
20260505153036 75 282 3.5 6.1 0.00 0.03 0.03 53 1009.6
20260505151536 74 285 4.3 8.7 0.00 0.03 0.03 51 1009.7
20260505124542 64 0 0.0 0.9 0.00 0.03 0.03 71 1011.1
20260505123049 63 247 0.0 0.9 0.00 0.03 0.03 69 1011.0
20260505121604 61 124 0.0 0.0 0.00 0.03 0.03 73 1010.8
20260505120031 60 125 0.0 1.7 0.00 0.03 0.03 78 1010.6
20260505114535 58 0 0.0 0.9 0.00 0.03 0.03 84 1010.6
20260505113032 55 0 0.0 0.0 0.00 0.03 0.03 88 1010.4
20260505111539 52 0 0.0 0.9 0.00 0.03 0.03 92 1010.5
20260505101540 48 0 0.0 0.9 0.00 0.03 0.03 92 1009.7
20260505100043 49 0 0.0 0.9 0.00 0.03 0.03 92 1009.7
20260505094536 49 0 0.0 0.9 0.00 0.03 0.03 91 1009.8
20260505093040 49 288 0.0 0.0 0.00 0.03 0.03 90 1009.8
20260505091541 50 0 0.0 0.9 0.00 0.03 0.03 89 1009.6
20260505090041 50 288 0.0 0.9 0.00 0.03 0.03 89 1009.5
20260505084535 51 0 0.0 0.0 0.00 0.03 0.03 89 1009.5
20260505083044 51 103 0.0 0.9 0.00 0.03 0.03 89 1009.4
20260505081534 52 0 0.0 0.0 0.00 0.03 0.03 88 1009.5
20260505080045 52 0 0.0 0.0 0.00 0.03 0.03 87 1009.4
20260505074538 53 98 0.0 0.9 0.00 0.03 0.03 87 1009.4
20260505073043 53 0 0.0 0.0 0.00 0.03 0.03 87 1009.3
20260505071540 53 0 0.0 0.9 0.00 0.03 0.03 87 1009.3
20260505070037 53 89 0.0 0.9 0.00 0.03 0.03 87 1009.3
20260505064536 54 88 0.0 0.9 0.03 0.03 0.03 86 1009.4
20260505063045 54 0 0.0 0.0 0.03 0.03 0.03 86 1009.6
20260505061539 53 0 0.0 0.0 0.03 0.03 0.03 85 1009.5
20260505060035 54 0 0.0 0.0 0.02 0.02 0.02 81 1009.5
20260505054543 54 0 0.0 0.0 0.00 0.00 0.00 79 1009.6
20260505053043 54 0 0.0 1.7 0.00 0.00 0.00 78 1009.6
20260505051541 53 111 0.0 0.9 0.00 0.00 0.00 78 1009.5
20260505041545 53 0 0.0 0.0 0.00 0.00 0.00 77 1009.4
20260505040042 54 98 0.9 1.7 0.00 0.00 0.00 76 1009.3
20260505034537 54 0 0.0 0.0 0.00 0.00 0.00 74 1009.3
20260505033034 55 0 0.0 0.0 0.00 0.00 0.00 73 1009.2
20260505031537 55 0 0.0 0.0 0.00 0.00 0.00 72 1009.2
20260505030047 55 0 0.0 0.0 0.00 0.00 0.00 72 1009.2
20260505024531 56 96 0.0 0.9 0.00 0.00 0.00 71 1009.1
20260505023035 56 99 0.0 0.9 0.00 0.00 0.00 69 1009.1
20260505021533 58 99 0.0 0.9 0.00 0.00 0.00 66 1009.2
20260505020049 61 0 0.0 1.7 0.00 0.00 0.00 60 1009.2
20260505014532 63 0 0.0 0.9 0.00 0.00 0.00 55 1009.2
20260505013032 64 0 0.0 1.7 0.00 0.00 0.00 53 1009.3
20260505011534 64 198 0.0 2.6 0.00 0.00 0.00 53 1009.1
20260505010057 65 0 0.0 1.7 0.00 0.00 0.00 52 1008.9
20260505004535 65 0 0.0 2.6 0.00 0.00 0.00 51 1008.6
20260505003045 67 0 0.0 3.5 0.00 0.00 0.00 50 1008.6
20260505001535 68 0 0.0 5.2 0.00 0.00 0.00 49 1008.4
20260505000037 69 149 0.0 2.6 0.00 0.00 0.00 47 1008.1
20260504234533 70 241 0.9 5.2 0.00 0.00 0.00 45 1008.0
20260504233041 71 152 0.9 4.3 0.00 0.00 0.00 45 1007.8
20260504231536 71 242 1.7 7.8 0.00 0.00 0.00 43 1007.8
20260504230039 72 292 0.9 5.2 0.00 0.00 0.00 43 1007.9
20260504224535 72 207 1.7 5.2 0.00 0.00 0.00 42 1007.9
20260504223033 72 155 1.7 9.6 0.00 0.00 0.00 41 1007.9
20260504221530 72 226 1.7 6.1 0.00 0.00 0.00 41 1007.9
20260504220035 73 221 2.6 9.6 0.00 0.00 0.00 40 1008.1
20260504214542 73 236 1.7 5.2 0.00 0.00 0.00 42 1008.1
20260504213034 73 234 3.5 8.7 0.00 0.00 0.00 42 1008.1
20260504211532 74 263 1.7 5.2 0.00 0.00 0.00 40 1008.1
20260504210040 73 228 2.6 8.7 0.00 0.00 0.00 41 1008.2
20260504204543 74 297 2.6 5.2 0.00 0.00 0.00 40 1008.3
20260504203037 73 240 3.5 8.7 0.00 0.00 0.00 40 1008.3
20260504201533 73 232 2.6 6.1 0.00 0.00 0.00 40 1008.6
20260504200043 74 278 1.7 7.8 0.00 0.00 0.00 41 1008.7
20260504194535 73 250 3.5 7.0 0.00 0.00 0.00 40 1008.8
20260504193032 72 264 3.5 8.7 0.00 0.00 0.00 41 1009.2
20260504191533 73 282 2.6 11.3 0.00 0.00 0.00 43 1009.3
20260504190030 72 255 2.6 7.8 0.00 0.00 0.00 42 1009.5
20260504184538 72 214 2.6 5.2 0.00 0.00 0.00 43 1009.7